PRIVATE WETTERSTATION BILLIGHEIM-ALLFELD                       ZURCK
Wetterdaten: Donnerstag, 24.04.2014
Datum Zeit Temp. A. Temp. A. min Temp. A. max Feuchte A. Luftdruck Regen Wind Richtung Richtung Sonnenschein ET Solar Taupunkt Windchill Windben Empfang
24.04.2014 00:00 10,4 C 10,4 C 10,7 C 74 % 1017,9 hPa 0,0 l/m 1,6 km/h (1 Bft) N-NO 22 0 min 0,025 mm 0 W/m 6,0 C 10,4 C 4,8 km/h (1 Bft) 100 %
24.04.2014 00:10 10,2 C 10,2 C 10,4 C 75 % 1017,9 hPa 0,0 l/m 0,0 km/h (0 Bft) N 0 0 min 0,000 mm 0 W/m 6,0 C 10,2 C 0,0 km/h (0 Bft) 100 %
24.04.2014 00:20 10,0 C 10,0 C 10,2 C 76 % 1017,8 hPa 0,0 l/m 0,0 km/h (0 Bft) N 0 0 min 0,000 mm 0 W/m 6,0 C 10,0 C 0,0 km/h (0 Bft) 100 %
24.04.2014 00:30 9,7 C 9,7 C 10,0 C 77 % 1017,8 hPa 0,0 l/m 0,0 km/h (0 Bft) N 0 0 min 0,000 mm 0 W/m 5,9 C 9,7 C 0,0 km/h (0 Bft) 100 %
24.04.2014 00:40 9,5 C 9,5 C 9,7 C 78 % 1017,8 hPa 0,0 l/m 0,0 km/h (0 Bft) N 0 0 min 0,000 mm 0 W/m 5,9 C 9,5 C 0,0 km/h (0 Bft) 100 %
24.04.2014 00:50 9,3 C 9,3 C 9,5 C 79 % 1017,8 hPa 0,0 l/m 0,0 km/h (0 Bft) N 0 0 min 0,000 mm 0 W/m 5,8 C 9,3 C 0,0 km/h (0 Bft) 100 %
24.04.2014 01:00 9,1 C 9,1 C 9,3 C 79 % 1017,8 hPa 0,0 l/m 0,0 km/h (0 Bft) N 0 0 min 0,025 mm 0 W/m 5,7 C 9,1 C 0,0 km/h (0 Bft) 100 %
24.04.2014 01:10 9,2 C 9,1 C 9,2 C 79 % 1017,8 hPa 0,0 l/m 0,0 km/h (0 Bft) N 0 0 min 0,000 mm 0 W/m 5,8 C 9,2 C 0,0 km/h (0 Bft) 100 %
24.04.2014 01:20 9,1 C 9,1 C 9,2 C 79 % 1017,8 hPa 0,0 l/m 0,0 km/h (0 Bft) N 0 0 min 0,000 mm 0 W/m 5,7 C 9,1 C 0,0 km/h (0 Bft) 100 %
24.04.2014 01:30 9,0 C 9,0 C 9,1 C 82 % 1017,8 hPa 0,0 l/m 0,0 km/h (0 Bft) N 0 0 min 0,000 mm 0 W/m 6,1 C 9,0 C 0,0 km/h (0 Bft) 100 %
24.04.2014 01:40 9,0 C 8,9 C 9,1 C 80 % 1017,7 hPa 0,0 l/m 0,0 km/h (0 Bft) N 0 0 min 0,000 mm 0 W/m 5,7 C 9,0 C 0,0 km/h (0 Bft) 100 %
24.04.2014 01:50 9,4 C 8,9 C 9,4 C 78 % 1017,8 hPa 0,0 l/m 0,0 km/h (0 Bft) N 0 0 min 0,000 mm 0 W/m 5,8 C 9,4 C 0,0 km/h (0 Bft) 100 %
24.04.2014 02:00 9,7 C 9,4 C 9,7 C 77 % 1017,7 hPa 0,0 l/m 0,0 km/h (0 Bft) N 0 0 min 0,025 mm 0 W/m 5,9 C 9,7 C 0,0 km/h (0 Bft) 100 %
24.04.2014 02:10 10,0 C 9,7 C 10,0 C 76 % 1017,7 hPa 0,0 l/m 0,0 km/h (0 Bft) N 0 0 min 0,000 mm 0 W/m 6,0 C 10,0 C 0,0 km/h (0 Bft) 100 %
24.04.2014 02:20 10,1 C 10,0 C 10,1 C 75 % 1017,6 hPa 0,0 l/m 0,0 km/h (0 Bft) N 0 0 min 0,000 mm 0 W/m 5,9 C 10,1 C 0,0 km/h (0 Bft) 100 %
24.04.2014 02:30 9,8 C 9,8 C 10,1 C 76 % 1017,6 hPa 0,0 l/m 0,0 km/h (0 Bft) N 0 0 min 0,000 mm 0 W/m 5,8 C 9,8 C 0,0 km/h (0 Bft) 99 %
24.04.2014 02:40 9,6 C 9,6 C 9,8 C 77 % 1017,5 hPa 0,0 l/m 0,0 km/h (0 Bft) N 0 0 min 0,000 mm 0 W/m 5,8 C 9,6 C 0,0 km/h (0 Bft) 100 %
24.04.2014 02:50 9,6 C 9,6 C 9,6 C 77 % 1017,6 hPa 0,0 l/m 0,0 km/h (0 Bft) N 0 0 min 0,000 mm 0 W/m 5,8 C 9,6 C 0,0 km/h (0 Bft) 100 %
24.04.2014 03:00 9,7 C 9,6 C 9,7 C 77 % 1017,6 hPa 0,0 l/m 0,0 km/h (0 Bft) N 0 0 min 0,025 mm 0 W/m 5,9 C 9,7 C 0,0 km/h (0 Bft) 99 %
24.04.2014 03:10 9,6 C 9,6 C 9,7 C 77 % 1017,6 hPa 0,0 l/m 1,6 km/h (1 Bft) N-NO 22 0 min 0,000 mm 0 W/m 5,8 C 9,6 C 4,8 km/h (1 Bft) 100 %
24.04.2014 03:20 9,3 C 9,3 C 9,6 C 78 % 1017,6 hPa 0,0 l/m 0,0 km/h (0 Bft) N-NO 22 0 min 0,000 mm 0 W/m 5,7 C 9,3 C 3,2 km/h (1 Bft) 99 %
24.04.2014 03:30 9,1 C 9,1 C 9,3 C 79 % 1017,5 hPa 0,0 l/m 0,0 km/h (0 Bft) N-NO 22 0 min 0,000 mm 0 W/m 5,7 C 9,1 C 3,2 km/h (1 Bft) 100 %
24.04.2014 03:40 9,2 C 9,1 C 9,2 C 79 % 1017,6 hPa 0,0 l/m 0,0 km/h (0 Bft) N-NO 22 0 min 0,000 mm 0 W/m 5,8 C 9,2 C 1,6 km/h (1 Bft) 100 %
24.04.2014 03:50 9,1 C 9,1 C 9,2 C 79 % 1017,7 hPa 0,0 l/m 0,0 km/h (0 Bft) N-NO 22 0 min 0,000 mm 0 W/m 5,7 C 9,1 C 3,2 km/h (1 Bft) 99 %
24.04.2014 04:00 8,8 C 8,8 C 9,1 C 80 % 1017,7 hPa 0,0 l/m 0,0 km/h (0 Bft) N-NO 22 0 min 0,025 mm 0 W/m 5,5 C 8,8 C 3,2 km/h (1 Bft) 100 %
24.04.2014 04:10 8,6 C 8,6 C 8,8 C 81 % 1017,6 hPa 0,0 l/m 1,6 km/h (1 Bft) N-NO 22 0 min 0,000 mm 0 W/m 5,5 C 8,6 C 4,8 km/h (1 Bft) 100 %
24.04.2014 04:20 8,5 C 8,5 C 8,6 C 82 % 1017,6 hPa 0,0 l/m 1,6 km/h (1 Bft) N-NO 22 0 min 0,000 mm 0 W/m 5,6 C 8,5 C 4,8 km/h (1 Bft) 100 %
24.04.2014 04:30 8,4 C 8,4 C 8,5 C 82 % 1017,6 hPa 0,0 l/m 0,0 km/h (0 Bft) N 360 0 min 0,000 mm 0 W/m 5,5 C 8,4 C 4,8 km/h (1 Bft) 91 %
24.04.2014 04:40 8,4 C 8,4 C 8,4 C 82 % 1017,6 hPa 0,0 l/m 0,0 km/h (0 Bft) N 360 0 min 0,000 mm 0 W/m 5,5 C 8,4 C 4,8 km/h (1 Bft) 100 %
24.04.2014 04:50 8,3 C 8,3 C 8,4 C 83 % 1017,6 hPa 0,0 l/m 0,0 km/h (0 Bft) N 360 0 min 0,000 mm 0 W/m 5,6 C 8,3 C 3,2 km/h (1 Bft) 100 %
24.04.2014 05:00 8,3 C 8,3 C 8,3 C 83 % 1017,5 hPa 0,0 l/m 0,0 km/h (0 Bft) N 360 0 min 0,000 mm 0 W/m 5,6 C 8,3 C 4,8 km/h (1 Bft) 100 %
24.04.2014 05:10 8,2 C 8,2 C 8,3 C 83 % 1017,4 hPa 0,0 l/m 0,0 km/h (0 Bft) N 360 0 min 0,000 mm 0 W/m 5,5 C 8,2 C 3,2 km/h (1 Bft) 100 %
24.04.2014 05:20 8,1 C 8,1 C 8,2 C 84 % 1017,4 hPa 0,0 l/m 0,0 km/h (0 Bft) N 360 0 min 0,000 mm 0 W/m 5,6 C 8,1 C 4,8 km/h (1 Bft) 100 %
24.04.2014 05:30 8,1 C 8,1 C 8,1 C 84 % 1017,4 hPa 0,0 l/m 0,0 km/h (0 Bft) N 360 0 min 0,000 mm 0 W/m 5,6 C 8,1 C 3,2 km/h (1 Bft) 100 %
24.04.2014 05:40 7,9 C 7,9 C 8,1 C 84 % 1017,4 hPa 0,0 l/m 1,6 km/h (1 Bft) N 360 0 min 0,000 mm 0 W/m 5,4 C 7,9 C 4,8 km/h (1 Bft) 100 %
24.04.2014 05:50 7,9 C 7,9 C 7,9 C 84 % 1017,5 hPa 0,0 l/m 0,0 km/h (0 Bft) N 360 0 min 0,000 mm 0 W/m 5,4 C 7,9 C 4,8 km/h (1 Bft) 100 %
24.04.2014 06:00 7,8 C 7,8 C 7,9 C 84 % 1017,5 hPa 0,0 l/m 0,0 km/h (0 Bft) N 360 0 min 0,000 mm 0 W/m 5,3 C 7,8 C 1,6 km/h (1 Bft) 100 %
24.04.2014 06:10 7,8 C 7,8 C 7,8 C 85 % 1017,5 hPa 0,0 l/m 1,6 km/h (1 Bft) N 360 0 min 0,000 mm 0 W/m 5,4 C 7,8 C 4,8 km/h (1 Bft) 99 %
24.04.2014 06:20 7,7 C 7,7 C 7,8 C 85 % 1017,6 hPa 0,0 l/m 0,0 km/h (0 Bft) N 360 0 min 0,000 mm 7 W/m 5,3 C 7,7 C 3,2 km/h (1 Bft) 100 %
24.04.2014 06:30 7,8 C 7,7 C 7,8 C 85 % 1017,6 hPa 0,0 l/m 1,6 km/h (1 Bft) N 360 0 min 0,000 mm 12 W/m 5,4 C 7,8 C 4,8 km/h (1 Bft) 100 %
24.04.2014 06:40 7,8 C 7,8 C 7,8 C 85 % 1017,7 hPa 0,0 l/m 1,6 km/h (1 Bft) N 360 0 min 0,000 mm 16 W/m 5,4 C 7,8 C 4,8 km/h (1 Bft) 100 %
24.04.2014 06:50 7,8 C 7,8 C 7,9 C 85 % 1017,8 hPa 0,0 l/m 0,0 km/h (0 Bft) NW 315 0 min 0,000 mm 21 W/m 5,4 C 7,8 C 3,2 km/h (1 Bft) 88 %
24.04.2014 07:00 7,9 C 7,8 C 7,9 C 86 % 1017,9 hPa 0,0 l/m 0,0 km/h (0 Bft) N 0 0 min 0,000 mm 25 W/m 5,7 C 7,9 C 0,0 km/h (0 Bft) 100 %
24.04.2014 07:10 8,0 C 7,9 C 8,0 C 86 % 1018,0 hPa 0,0 l/m 0,0 km/h (0 Bft) N 0 0 min 0,000 mm 30 W/m 5,8 C 8,0 C 0,0 km/h (0 Bft) 100 %
24.04.2014 07:20 8,1 C 8,0 C 8,1 C 86 % 1018,2 hPa 0,0 l/m 0,0 km/h (0 Bft) N 0 0 min 0,000 mm 35 W/m 5,9 C 8,1 C 0,0 km/h (0 Bft) 100 %
24.04.2014 07:30 8,2 C 8,1 C 8,2 C 86 % 1018,2 hPa 0,0 l/m 0,0 km/h (0 Bft) N-NW 337 0 min 0,000 mm 39 W/m 6,0 C 8,2 C 1,6 km/h (1 Bft) 100 %
24.04.2014 07:40 8,3 C 8,2 C 8,3 C 86 % 1018,1 hPa 0,0 l/m 0,0 km/h (0 Bft) W-NW 292 0 min 0,000 mm 42 W/m 6,1 C 8,3 C 1,6 km/h (1 Bft) 100 %
24.04.2014 07:50 8,2 C 8,2 C 8,3 C 86 % 1018,2 hPa 0,0 l/m 0,0 km/h (0 Bft) N 0 0 min 0,000 mm 47 W/m 6,0 C 8,2 C 0,0 km/h (0 Bft) 100 %
24.04.2014 08:00 8,3 C 8,2 C 8,3 C 86 % 1018,2 hPa 0,0 l/m 0,0 km/h (0 Bft) N 0 0 min 0,025 mm 51 W/m 6,1 C 8,3 C 0,0 km/h (0 Bft) 100 %
24.04.2014 08:10 8,7 C 8,3 C 8,7 C 86 % 1018,3 hPa 0,0 l/m 0,0 km/h (0 Bft) N 360 0 min 0,000 mm 54 W/m 6,5 C 8,7 C 1,6 km/h (1 Bft) 100 %
24.04.2014 08:20 9,1 C 8,7 C 9,1 C 86 % 1018,2 hPa 0,0 l/m 0,0 km/h (0 Bft) N 360 0 min 0,000 mm 98 W/m 6,9 C 9,1 C 1,6 km/h (1 Bft) 100 %
24.04.2014 08:30 9,8 C 9,1 C 9,8 C 86 % 1018,3 hPa 0,0 l/m 0,0 km/h (0 Bft) N 0 10 min 0,000 mm 287 W/m 7,6 C 9,8 C 0,0 km/h (0 Bft) 97 %
24.04.2014 08:40 10,9 C 9,9 C 10,9 C 84 % 1018,3 hPa 0,0 l/m 0,0 km/h (0 Bft) NW 315 10 min 0,000 mm 320 W/m 8,3 C 10,9 C 1,6 km/h (1 Bft) 98 %
24.04.2014 08:50 11,9 C 10,9 C 11,9 C 82 % 1018,3 hPa 0,0 l/m 0,0 km/h (0 Bft) N-NW 337 10 min 0,000 mm 352 W/m 8,9 C 11,9 C 3,2 km/h (1 Bft) 97 %
24.04.2014 09:00 12,9 C 11,9 C 12,9 C 78 % 1018,2 hPa 0,0 l/m 0,0 km/h (0 Bft) N 0 10 min 0,102 mm 380 W/m 9,2 C 12,9 C 0,0 km/h (0 Bft) 98 %
24.04.2014 09:10 14,0 C 12,9 C 14,0 C 74 % 1018,2 hPa 0,0 l/m 0,0 km/h (0 Bft) N 0 10 min 0,000 mm 408 W/m 9,4 C 14,0 C 0,0 km/h (0 Bft) 98 %
24.04.2014 09:20 14,9 C 14,0 C 14,9 C 70 % 1018,2 hPa 0,0 l/m 0,0 km/h (0 Bft) N 0 10 min 0,000 mm 434 W/m 9,5 C 14,9 C 0,0 km/h (0 Bft) 97 %
24.04.2014 09:30 15,4 C 14,9 C 15,4 C 68 % 1018,1 hPa 0,0 l/m 0,0 km/h (0 Bft) N 0 10 min 0,000 mm 462 W/m 9,5 C 15,4 C 0,0 km/h (0 Bft) 98 %
24.04.2014 09:40 16,1 C 15,4 C 16,1 C 67 % 1018,2 hPa 0,0 l/m 0,0 km/h (0 Bft) N 0 10 min 0,000 mm 490 W/m 10,0 C 16,1 C 0,0 km/h (0 Bft) 98 %
24.04.2014 09:50 16,7 C 16,1 C 16,7 C 69 % 1018,2 hPa 0,0 l/m 0,0 km/h (0 Bft) N 0 10 min 0,000 mm 519 W/m 11,0 C 16,7 C 0,0 km/h (0 Bft) 98 %
24.04.2014 10:00 17,2 C 16,7 C 17,2 C 63 % 1018,2 hPa 0,0 l/m 0,0 km/h (0 Bft) W 270 10 min 0,254 mm 541 W/m 10,1 C 17,2 C 6,4 km/h (2 Bft) 97 %
24.04.2014 10:10 17,6 C 17,2 C 17,6 C 64 % 1018,2 hPa 0,0 l/m 0,0 km/h (0 Bft) S-SW 202 10 min 0,000 mm 563 W/m 10,7 C 17,6 C 8,0 km/h (2 Bft) 97 %
24.04.2014 10:20 18,0 C 17,6 C 18,0 C 62 % 1018,0 hPa 0,0 l/m 1,6 km/h (1 Bft) W-NW 292 10 min 0,000 mm 585 W/m 10,6 C 18,0 C 6,4 km/h (2 Bft) 98 %
24.04.2014 10:30 18,3 C 18,0 C 18,3 C 61 % 1018,0 hPa 0,0 l/m 0,0 km/h (0 Bft) NW 315 10 min 0,000 mm 605 W/m 10,6 C 18,3 C 4,8 km/h (1 Bft) 98 %
24.04.2014 10:40 18,8 C 18,3 C 18,8 C 59 % 1018,0 hPa 0,0 l/m 0,0 km/h (0 Bft) NW 315 10 min 0,000 mm 628 W/m 10,6 C 18,8 C 3,2 km/h (1 Bft) 97 %
24.04.2014 10:50 19,0 C 18,8 C 19,0 C 60 % 1017,9 hPa 0,0 l/m 0,0 km/h (0 Bft) NW 315 10 min 0,000 mm 647 W/m 11,1 C 19,0 C 6,4 km/h (2 Bft) 97 %
24.04.2014 11:10 19,7 C 18,8 C 19,7 C 56 % 1017,7 hPa 0,0 l/m 0,5 km/h (0 Bft) N-NO 17 20 min 0,307 mm 682 W/m 10,7 C 19,7 C 6,4 km/h (2 Bft) 100 %
24.04.2014 11:20 20,2 C 19,7 C 20,2 C 57 % 1017,5 hPa 0,0 l/m 0,7 km/h (0 Bft) N-NW 331 10 min 0,000 mm 705 W/m 11,4 C 20,2 C 6,4 km/h (2 Bft) 100 %
24.04.2014 11:30 20,3 C 20,2 C 20,3 C 55 % 1017,4 hPa 0,0 l/m 0,2 km/h (0 Bft) N-NW 327 10 min 0,000 mm 717 W/m 11,0 C 20,3 C 3,2 km/h (1 Bft) 100 %
24.04.2014 11:40 20,4 C 20,3 C 20,4 C 57 % 1017,2 hPa 0,0 l/m 1,6 km/h (1 Bft) NW 315 10 min 0,000 mm 735 W/m 11,6 C 20,4 C 9,7 km/h (2 Bft) 98 %
24.04.2014 11:50 20,8 C 20,4 C 20,8 C 53 % 1017,1 hPa 0,0 l/m 0,0 km/h (0 Bft) NW 315 10 min 0,000 mm 742 W/m 10,9 C 20,8 C 4,8 km/h (1 Bft) 98 %
24.04.2014 12:00 21,1 C 20,8 C 21,1 C 52 % 1017,0 hPa 0,0 l/m 1,6 km/h (1 Bft) N-NW 337 10 min 0,406 mm 758 W/m 10,9 C 21,1 C 6,4 km/h (2 Bft) 97 %
24.04.2014 12:10 21,6 C 21,1 C 21,6 C 54 % 1016,9 hPa 0,0 l/m 1,6 km/h (1 Bft) NW 315 10 min 0,000 mm 765 W/m 11,9 C 21,6 C 9,7 km/h (2 Bft) 97 %
24.04.2014 12:20 21,9 C 21,6 C 21,9 C 50 % 1016,8 hPa 0,0 l/m 1,6 km/h (1 Bft) NW 315 10 min 0,000 mm 786 W/m 11,0 C 21,9 C 11,3 km/h (2 Bft) 97 %
24.04.2014 12:30 22,1 C 21,9 C 22,2 C 46 % 1016,7 hPa 0,0 l/m 3,2 km/h (1 Bft) SO 135 10 min 0,000 mm 803 W/m 9,9 C 22,1 C 16,1 km/h (3 Bft) 98 %
24.04.2014 12:40 22,2 C 22,0 C 22,2 C 49 % 1016,6 hPa 0,0 l/m 1,6 km/h (1 Bft) SO 135 10 min 0,000 mm 824 W/m 11,0 C 22,2 C 16,1 km/h (3 Bft) 98 %
24.04.2014 12:50 22,0 C 22,0 C 22,3 C 47 % 1016,6 hPa 0,0 l/m 3,2 km/h (1 Bft) SO 135 10 min 0,000 mm 838 W/m 10,2 C 22,0 C 14,5 km/h (3 Bft) 97 %
24.04.2014 13:00 22,2 C 21,9 C 22,2 C 47 % 1016,5 hPa 0,0 l/m 1,6 km/h (1 Bft) O 90 10 min 0,483 mm 882 W/m 10,3 C 22,2 C 9,7 km/h (2 Bft) 98 %
24.04.2014 13:10 22,4 C 22,2 C 22,6 C 49 % 1016,4 hPa 0,0 l/m 1,6 km/h (1 Bft) O-SO 112 10 min 0,000 mm 886 W/m 11,2 C 22,4 C 9,7 km/h (2 Bft) 97 %
24.04.2014 13:20 21,9 C 21,9 C 22,4 C 45 % 1016,4 hPa 0,0 l/m 1,6 km/h (1 Bft) O-SO 112 10 min 0,000 mm 318 W/m 9,4 C 21,9 C 9,7 km/h (2 Bft) 98 %
24.04.2014 13:30 21,7 C 21,7 C 21,9 C 48 % 1016,3 hPa 0,0 l/m 0,0 km/h (0 Bft) SW 225 10 min 0,000 mm 881 W/m 10,2 C 21,7 C 1,6 km/h (1 Bft) 97 %
24.04.2014 13:40 21,7 C 21,7 C 21,8 C 45 % 1016,2 hPa 0,0 l/m 0,0 km/h (0 Bft) S-SO 157 10 min 0,000 mm 879 W/m 9,2 C 21,7 C 8,0 km/h (2 Bft) 98 %
24.04.2014 13:50 21,3 C 21,3 C 21,7 C 49 % 1016,1 hPa 0,0 l/m 1,6 km/h (1 Bft) O-SO 112 10 min 0,000 mm 264 W/m 10,1 C 21,3 C 6,4 km/h (2 Bft) 98 %
24.04.2014 14:00 21,3 C 21,2 C 21,3 C 49 % 1015,9 hPa 0,0 l/m 0,0 km/h (0 Bft) SO 135 10 min 0,254 mm 905 W/m 10,1 C 21,3 C 1,6 km/h (1 Bft) 99 %
24.04.2014 14:10 22,1 C 21,3 C 22,1 C 45 % 1015,8 hPa 0,0 l/m 1,6 km/h (1 Bft) NW 315 10 min 0,000 mm 940 W/m 9,6 C 22,1 C 8,0 km/h (2 Bft) 98 %
24.04.2014 14:20 22,9 C 22,1 C 22,9 C 46 % 1015,6 hPa 0,0 l/m 3,2 km/h (1 Bft) NW 315 10 min 0,000 mm 914 W/m 10,7 C 22,9 C 11,3 km/h (2 Bft) 98 %
24.04.2014 14:30 22,5 C 22,5 C 22,9 C 47 % 1015,6 hPa 0,0 l/m 1,6 km/h (1 Bft) O 90 10 min 0,000 mm 234 W/m 10,6 C 22,5 C 9,7 km/h (2 Bft) 99 %
24.04.2014 14:40 22,2 C 22,2 C 22,4 C 48 % 1015,6 hPa 0,0 l/m 0,0 km/h (0 Bft) NW 315 10 min 0,000 mm 830 W/m 10,7 C 22,2 C 4,8 km/h (1 Bft) 98 %
24.04.2014 14:50 22,8 C 22,2 C 22,8 C 46 % 1015,3 hPa 0,0 l/m 0,0 km/h (0 Bft) N-NW 328 10 min 0,000 mm 199 W/m 10,6 C 22,8 C 1,6 km/h (1 Bft) 100 %
24.04.2014 15:00 22,6 C 22,6 C 22,8 C 48 % 1015,2 hPa 0,0 l/m 0,0 km/h (0 Bft) W 270 10 min 0,356 mm 895 W/m 11,0 C 22,6 C 9,7 km/h (2 Bft) 99 %
24.04.2014 15:10 22,7 C 22,7 C 22,8 C 43 % 1015,2 hPa 0,0 l/m 1,6 km/h (1 Bft) NO 45 10 min 0,000 mm 860 W/m 9,5 C 22,7 C 8,0 km/h (2 Bft) 99 %
24.04.2014 15:20 22,9 C 22,6 C 22,9 C 44 % 1014,9 hPa 0,0 l/m 0,0 km/h (0 Bft) O-NO 67 10 min 0,000 mm 770 W/m 10,0 C 22,9 C 9,7 km/h (2 Bft) 100 %
24.04.2014 15:30 23,4 C 22,9 C 23,4 C 40 % 1014,7 hPa 0,0 l/m 0,0 km/h (0 Bft) N 360 10 min 0,000 mm 714 W/m 9,0 C 23,4 C 8,0 km/h (2 Bft) 100 %
24.04.2014 15:40 23,8 C 23,4 C 23,8 C 41 % 1014,6 hPa 0,0 l/m 0,0 km/h (0 Bft) N-NW 337 10 min 0,000 mm 673 W/m 9,7 C 23,8 C 1,6 km/h (1 Bft) 100 %
24.04.2014 15:50 24,2 C 23,8 C 24,2 C 41 % 1014,3 hPa 0,0 l/m 0,0 km/h (0 Bft) N-NO 22 10 min 0,000 mm 663 W/m 10,1 C 24,2 C 9,7 km/h (2 Bft) 100 %
24.04.2014 16:00 23,6 C 23,6 C 24,2 C 40 % 1014,1 hPa 0,0 l/m 3,2 km/h (1 Bft) SO 135 10 min 0,381 mm 663 W/m 9,2 C 23,6 C 20,9 km/h (4 Bft) 100 %
24.04.2014 16:10 23,4 C 23,3 C 23,5 C 40 % 1014,0 hPa 0,0 l/m 1,6 km/h (1 Bft) O-SO 112 10 min 0,000 mm 643 W/m 9,0 C 23,4 C 9,7 km/h (2 Bft) 100 %
24.04.2014 16:20 23,6 C 23,4 C 23,6 C 40 % 1013,8 hPa 0,0 l/m 0,0 km/h (0 Bft) N-NO 22 10 min 0,000 mm 596 W/m 9,2 C 23,6 C 3,2 km/h (1 Bft) 100 %
24.04.2014 16:30 23,4 C 23,4 C 23,6 C 37 % 1013,8 hPa 0,0 l/m 1,6 km/h (1 Bft) NO 45 10 min 0,000 mm 540 W/m 7,9 C 23,4 C 8,0 km/h (2 Bft) 100 %
24.04.2014 16:40 23,5 C 23,4 C 23,5 C 39 % 1013,5 hPa 0,0 l/m 0,0 km/h (0 Bft) O-SO 112 10 min 0,000 mm 552 W/m 8,7 C 23,5 C 3,2 km/h (1 Bft) 100 %
24.04.2014 16:50 23,6 C 23,5 C 23,7 C 38 % 1013,6 hPa 0,0 l/m 0,0 km/h (0 Bft) O 90 10 min 0,000 mm 531 W/m 8,4 C 23,6 C 8,0 km/h (2 Bft) 100 %
24.04.2014 17:00 23,8 C 23,6 C 23,8 C 40 % 1013,5 hPa 0,0 l/m 0,0 km/h (0 Bft) O 90 10 min 0,279 mm 534 W/m 9,4 C 23,8 C 4,8 km/h (1 Bft) 99 %
24.04.2014 17:10 23,3 C 23,3 C 23,7 C 41 % 1013,5 hPa 0,0 l/m 0,0 km/h (0 Bft) O-SO 112 10 min 0,000 mm 471 W/m 9,3 C 23,3 C 9,7 km/h (2 Bft) 100 %
24.04.2014 17:20 23,1 C 23,1 C 23,3 C 41 % 1013,3 hPa 0,0 l/m 0,0 km/h (0 Bft) SO 135 10 min 0,000 mm 188 W/m 9,1 C 23,1 C 8,0 km/h (2 Bft) 100 %
24.04.2014 17:30 23,1 C 23,0 C 23,1 C 41 % 1013,3 hPa 0,0 l/m 0,0 km/h (0 Bft) O-NO 67 10 min 0,000 mm 158 W/m 9,1 C 23,1 C 11,3 km/h (2 Bft) 100 %
24.04.2014 17:40 23,2 C 23,1 C 23,2 C 41 % 1013,2 hPa 0,0 l/m 0,0 km/h (0 Bft) O 90 0 min 0,000 mm 104 W/m 9,2 C 23,2 C 3,2 km/h (1 Bft) 100 %
24.04.2014 17:50 23,1 C 23,1 C 23,2 C 40 % 1013,2 hPa 0,0 l/m 1,6 km/h (1 Bft) O 90 0 min 0,000 mm 88 W/m 8,8 C 23,1 C 9,7 km/h (2 Bft) 100 %
24.04.2014 18:00 22,7 C 22,7 C 23,1 C 44 % 1013,3 hPa 0,0 l/m 1,6 km/h (1 Bft) O-NO 67 0 min 0,102 mm 88 W/m 9,8 C 22,7 C 17,7 km/h (3 Bft) 100 %
24.04.2014 18:10 22,4 C 22,4 C 22,7 C 42 % 1013,2 hPa 0,0 l/m 1,6 km/h (1 Bft) O-SO 112 0 min 0,000 mm 86 W/m 8,9 C 22,4 C 14,5 km/h (3 Bft) 100 %
24.04.2014 18:20 22,3 C 22,3 C 22,4 C 42 % 1013,0 hPa 0,0 l/m 1,6 km/h (1 Bft) O-SO 112 0 min 0,000 mm 81 W/m 8,8 C 22,3 C 6,4 km/h (2 Bft) 100 %
24.04.2014 18:30 22,2 C 22,2 C 22,3 C 42 % 1012,9 hPa 0,0 l/m 1,6 km/h (1 Bft) O 90 0 min 0,000 mm 70 W/m 8,7 C 22,2 C 8,0 km/h (2 Bft) 100 %
24.04.2014 18:40 21,9 C 21,9 C 22,2 C 43 % 1012,9 hPa 0,0 l/m 0,0 km/h (0 Bft) O-SO 112 0 min 0,000 mm 67 W/m 8,7 C 21,9 C 6,4 km/h (2 Bft) 100 %
24.04.2014 18:50 21,7 C 21,7 C 21,9 C 44 % 1012,9 hPa 0,0 l/m 0,0 km/h (0 Bft) O 90 0 min 0,000 mm 77 W/m 8,9 C 21,7 C 4,8 km/h (1 Bft) 100 %
24.04.2014 19:00 21,4 C 21,4 C 21,7 C 44 % 1012,8 hPa 0,0 l/m 0,0 km/h (0 Bft) N-NO 22 0 min 0,051 mm 62 W/m 8,6 C 21,4 C 6,4 km/h (2 Bft) 100 %
24.04.2014 19:10 21,2 C 21,2 C 21,4 C 44 % 1012,8 hPa 0,0 l/m 0,0 km/h (0 Bft) O-NO 67 0 min 0,000 mm 53 W/m 8,5 C 21,2 C 4,8 km/h (1 Bft) 100 %
24.04.2014 19:20 20,9 C 20,9 C 21,2 C 45 % 1012,8 hPa 0,0 l/m 0,0 km/h (0 Bft) O-SO 112 0 min 0,000 mm 44 W/m 8,5 C 20,9 C 8,0 km/h (2 Bft) 100 %
24.04.2014 19:30 20,5 C 20,5 C 20,9 C 44 % 1012,8 hPa 0,0 l/m 1,6 km/h (1 Bft) O-SO 112 0 min 0,000 mm 33 W/m 7,8 C 20,5 C 8,0 km/h (2 Bft) 100 %
24.04.2014 19:40 20,2 C 20,2 C 20,5 C 46 % 1012,8 hPa 0,0 l/m 0,0 km/h (0 Bft) O-SO 112 0 min 0,000 mm 28 W/m 8,2 C 20,2 C 6,4 km/h (2 Bft) 100 %
24.04.2014 19:50 19,9 C 19,9 C 20,5 C 47 % 1012,8 hPa 0,0 l/m 0,0 km/h (0 Bft) SW 215 0 min 0,000 mm 25 W/m 8,3 C 19,9 C 1,6 km/h (1 Bft) 100 %
24.04.2014 20:00 19,6 C 19,6 C 19,9 C 47 % 1012,7 hPa 0,0 l/m 0,0 km/h (0 Bft) SW 215 0 min 0,025 mm 16 W/m 8,0 C 19,6 C 1,6 km/h (1 Bft) 100 %
24.04.2014 20:10 19,2 C 19,2 C 19,6 C 48 % 1012,7 hPa 0,0 l/m 0,2 km/h (0 Bft) S-SO 155 0 min 0,000 mm 12 W/m 7,9 C 19,2 C 4,8 km/h (1 Bft) 100 %
24.04.2014 20:20 18,9 C 18,9 C 19,2 C 49 % 1012,7 hPa 0,0 l/m 0,1 km/h (0 Bft) O-SO 106 0 min 0,000 mm 5 W/m 7,9 C 18,9 C 3,2 km/h (1 Bft) 100 %
24.04.2014 20:30 18,7 C 18,7 C 18,9 C 49 % 1012,7 hPa 0,0 l/m 0,2 km/h (0 Bft) O 96 0 min 0,000 mm 0 W/m 7,8 C 18,7 C 6,4 km/h (2 Bft) 99 %
24.04.2014 20:40 18,4 C 18,4 C 18,7 C 50 % 1012,7 hPa 0,0 l/m 0,2 km/h (0 Bft) NO 43 0 min 0,000 mm 0 W/m 7,8 C 18,4 C 3,2 km/h (1 Bft) 100 %
24.04.2014 20:50 18,2 C 18,2 C 18,4 C 50 % 1012,6 hPa 0,0 l/m 0,3 km/h (0 Bft) O-SO 104 0 min 0,000 mm 0 W/m 7,6 C 18,2 C 3,2 km/h (1 Bft) 100 %
24.04.2014 21:00 18,0 C 18,0 C 18,2 C 51 % 1012,7 hPa 0,0 l/m 0,3 km/h (0 Bft) O 92 0 min 0,025 mm 0 W/m 7,7 C 18,0 C 4,8 km/h (1 Bft) 100 %
24.04.2014 21:10 17,8 C 17,8 C 18,0 C 51 % 1012,7 hPa 0,0 l/m 0,0 km/h (0 Bft) O 90 0 min 0,000 mm 0 W/m 7,5 C 17,8 C 6,4 km/h (2 Bft) 99 %
24.04.2014 21:40 17,4 C 17,4 C 17,8 C 53 % 1012,7 hPa 0,0 l/m 0,3 km/h (0 Bft) NO 44 0 min 0,000 mm 0 W/m 7,7 C 17,4 C 4,8 km/h (1 Bft) 100 %
24.04.2014 21:50 17,2 C 17,2 C 17,4 C 53 % 1012,7 hPa 0,0 l/m 0,2 km/h (0 Bft) NO 54 0 min 0,000 mm 0 W/m 7,5 C 17,2 C 3,2 km/h (1 Bft) 100 %
24.04.2014 22:00 17,0 C 17,0 C 17,2 C 54 % 1012,7 hPa 0,0 l/m 0,2 km/h (0 Bft) N-NO 26 0 min 0,051 mm 0 W/m 7,6 C 17,0 C 6,4 km/h (2 Bft) 100 %
24.04.2014 22:10 16,8 C 16,8 C 17,0 C 55 % 1012,7 hPa 0,0 l/m 0,1 km/h (0 Bft) O-NO 65 0 min 0,000 mm 0 W/m 7,7 C 16,8 C 3,2 km/h (1 Bft) 100 %
24.04.2014 22:20 16,6 C 16,6 C 16,8 C 57 % 1012,6 hPa 0,0 l/m 0,1 km/h (0 Bft) NO 40 0 min 0,000 mm 0 W/m 8,0 C 16,6 C 3,2 km/h (1 Bft) 100 %
24.04.2014 22:30 16,2 C 16,2 C 16,6 C 58 % 1012,5 hPa 0,0 l/m 0,2 km/h (0 Bft) SO 126 0 min 0,000 mm 0 W/m 7,9 C 16,2 C 6,4 km/h (2 Bft) 100 %
24.04.2014 22:40 15,6 C 15,6 C 16,2 C 60 % 1012,5 hPa 0,0 l/m 0,0 km/h (0 Bft) SO 125 0 min 0,000 mm 0 W/m 7,9 C 15,6 C 1,6 km/h (1 Bft) 100 %
24.04.2014 22:51 14,9 C 14,9 C 15,6 C 62 % 1012,5 hPa 0,0 l/m 0,1 km/h (0 Bft) O 88 0 min 0,000 mm 0 W/m 7,7 C 14,9 C 1,6 km/h (1 Bft) 100 %
24.04.2014 23:00 14,7 C 14,7 C 14,9 C 63 % 1012,4 hPa 0,0 l/m 0,0 km/h (0 Bft) O 88 0 min 0,000 mm 0 W/m 7,7 C 14,7 C 1,6 km/h (1 Bft) 100 %
24.04.2014 23:10 14,6 C 14,6 C 14,7 C 63 % 1012,3 hPa 0,0 l/m 0,5 km/h (0 Bft) N-NO 29 0 min 0,025 mm 0 W/m 7,6 C 14,6 C 4,8 km/h (1 Bft) 100 %
24.04.2014 23:20 14,3 C 14,3 C 14,6 C 64 % 1012,3 hPa 0,0 l/m 0,0 km/h (0 Bft) N-NO 29 0 min 0,000 mm 0 W/m 7,6 C 14,3 C 1,6 km/h (1 Bft) 100 %
24.04.2014 23:30 14,2 C 14,2 C 14,4 C 64 % 1012,3 hPa 0,0 l/m 0,6 km/h (0 Bft) N-NW 337 0 min 0,000 mm 0 W/m 7,5 C 14,2 C 9,7 km/h (2 Bft) 100 %
24.04.2014 23:40 14,3 C 14,2 C 14,3 C 64 % 1012,3 hPa 0,0 l/m 1,5 km/h (1 Bft) NO 49 0 min 0,000 mm 0 W/m 7,6 C 14,3 C 11,3 km/h (2 Bft) 100 %
24.04.2014 23:50 14,6 C 14,3 C 14,6 C 64 % 1012,3 hPa 0,0 l/m 1,1 km/h (1 Bft) N-NO 28 0 min 0,000 mm 0 W/m 7,9 C 14,6 C 9,7 km/h (2 Bft) 100 %
_ Min-Zeit 06:20 06:20 06:10 16:30 23:10 - 00:10 - - - - - 06:00 06:20 00:10 06:50
Minimum _ 7,7 C 7,7 C 7,8 C 37 % 1012,3 hPa - 0,0 km/h (0 Bft) - - - - - 5,3 C 7,7 C 0,0 km/h (0 Bft) 88 %
_ Max-Zeit 15:50 15:50 15:50 07:00 08:10 00:00 12:30 - - 11:10 13:00 14:10 12:10 15:50 16:00 00:00
Maximum _ 24,2 C 23,8 C 24,2 C 86 % 1018,3 hPa 0,0 l/m 3,2 km/h
SO (1 Bft)
- - 20 min 0,483 mm 940 W/m 11,9 C 24,2 C 20,9 km/h
O-SO (4 Bft)
100 %
Durchschnitt _ 15,8 C 15,6 C 15,9 C 63 % 1015,9 hPa #0,0 l/m 0,5 km/h (0 Bft) O-SO - #9:10 h #3,251 mm 412 W/m 8,0 C 15,8 C 4,7 km/h (1 Bft) 99 %
PRIVATE WETTERSTATION BILLIGHEIM-ALLFELD - www.neckar-odenwald-wetter.de - Holger Sonntag